Back to catalog

COSMOS 970 DEB

AliveLEO
NORAD 10573·DEBRIS·🇷🇺 Russia

Launched Dec 21, 1977 from Baikonur Cosmodrome

Loading…

Next Passes (next 24 hours)

TLE

FreshSource: Space-Track

Epoch: Sep 13, 2026, 21:28 UTC

1 10573U 77121Q   26256.89448399  .00000016  00000-0  13138-3 0  9995
2 10573  66.3620  71.5474 0086668  15.8610  94.7921 13.52031027401960

Track COSMOS 970 DEB in real time with AllMySat

Download on the App Store